| time (UTC) | temp F | wind direction | speed MPH | gust MPH | rain 1hr in | rain 24hr in | rain mn in | humidity % | barometer mb |
| 20260505074548 | 71 | 225 | 14.0 | 20.0 | 0.00 | 0.00 | 0.00 | 37 | 1013.9 |
| 20260505073058 | 70 | 227 | 14.0 | 19.0 | 0.00 | 0.00 | 0.00 | 37 | 1013.9 |
| 20260505071552 | 70 | 217 | 4.0 | 13.0 | 0.00 | 0.00 | 0.00 | 37 | 1014.1 |
| 20260505070053 | 68 | 172 | 7.0 | 16.0 | 0.00 | 0.00 | 0.00 | 39 | 1014.2 |
| 20260505064548 | 67 | 247 | 10.0 | 15.0 | 0.00 | 0.00 | 0.00 | 37 | 1014.1 |
| 20260505063052 | 66 | 244 | 11.0 | 17.0 | 0.00 | 0.00 | 0.00 | 39 | 1014.2 |
| 20260505061552 | 66 | 240 | 13.0 | 19.0 | 0.00 | 0.00 | 0.00 | 38 | 1014.3 |
| 20260505060050 | 65 | 227 | 11.0 | 16.0 | 0.00 | 0.00 | 0.00 | 40 | 1014.2 |
| 20260505054559 | 63 | 217 | 4.0 | 9.0 | 0.00 | 0.00 | 0.00 | 44 | 1014.3 |
| 20260505053054 | 61 | 210 | 5.0 | 15.0 | 0.00 | 0.00 | 0.00 | 43 | 1014.4 |
| 20260505051549 | 60 | 188 | 8.0 | 13.0 | 0.00 | 0.00 | 0.00 | 44 | 1014.4 |
| 20260505041554 | 49 | 219 | 6.0 | 9.0 | 0.00 | 0.00 | 0.00 | 61 | 1014.4 |
| 20260505040054 | 45 | 221 | 5.0 | 9.0 | 0.00 | 0.00 | 0.00 | 65 | 1014.5 |
| 20260505034550 | 43 | 191 | 6.0 | 8.0 | 0.00 | 0.00 | 0.00 | 67 | 1014.5 |
| 20260505033051 | 43 | 221 | 3.0 | 5.0 | 0.00 | 0.00 | 0.00 | 66 | 1014.4 |
| 20260505031552 | 43 | 204 | 5.0 | 7.0 | 0.00 | 0.00 | 0.00 | 66 | 1014.5 |
| 20260505030048 | 43 | 198 | 5.0 | 7.0 | 0.00 | 0.00 | 0.00 | 67 | 1014.5 |
| 20260505024547 | 42 | 252 | 4.0 | 8.0 | 0.00 | 0.00 | 0.00 | 68 | 1014.5 |
| 20260505023055 | 42 | 250 | 3.0 | 7.0 | 0.00 | 0.00 | 0.00 | 68 | 1014.5 |
| 20260505021549 | 42 | 259 | 2.0 | 7.0 | 0.00 | 0.00 | 0.00 | 67 | 1014.6 |
| 20260505020055 | 44 | 219 | 3.0 | 6.0 | 0.00 | 0.00 | 0.00 | 65 | 1014.7 |
| 20260505014550 | 43 | 250 | 2.0 | 8.0 | 0.00 | 0.00 | 0.00 | 66 | 1014.8 |
| 20260505013047 | 43 | 255 | 5.0 | 8.0 | 0.00 | 0.00 | 0.00 | 67 | 1014.8 |
| 20260505011554 | 43 | 219 | 4.0 | 7.0 | 0.00 | 0.00 | 0.00 | 68 | 1014.8 |
| 20260505010100 | 42 | 272 | 2.0 | 6.0 | 0.00 | 0.00 | 0.00 | 70 | 1014.9 |
| 20260505004552 | 42 | 268 | 4.0 | 7.0 | 0.00 | 0.00 | 0.00 | 68 | 1014.9 |
| 20260505003057 | 42 | 258 | 3.0 | 6.0 | 0.00 | 0.00 | 0.00 | 68 | 1015.2 |
| 20260505001550 | 42 | 259 | 2.0 | 3.0 | 0.00 | 0.00 | 0.00 | 68 | 1015.3 |
| 20260505000058 | 43 | 259 | 1.0 | 4.0 | 0.00 | 0.00 | 0.00 | 68 | 1015.3 |
| 20260504234553 | 42 | 259 | 3.0 | 4.0 | 0.00 | 0.00 | 0.00 | 69 | 1015.5 |
| 20260504233050 | 43 | 257 | 2.0 | 3.0 | 0.00 | 0.00 | 0.00 | 67 | 1015.6 |
| 20260504231552 | 42 | 257 | 2.0 | 4.0 | 0.00 | 0.00 | 0.00 | 69 | 1015.7 |
| 20260504230050 | 41 | 253 | 2.0 | 4.0 | 0.00 | 0.00 | 0.00 | 70 | 1015.8 |
| 20260504224549 | 42 | 235 | 2.0 | 5.0 | 0.00 | 0.00 | 0.00 | 68 | 1015.9 |
| 20260504223051 | 42 | 225 | 3.0 | 6.0 | 0.00 | 0.00 | 0.00 | 69 | 1015.9 |
| 20260504221551 | 42 | 253 | 5.0 | 7.0 | 0.00 | 0.00 | 0.00 | 68 | 1016.1 |
| 20260504220111 | 43 | 248 | 4.0 | 7.0 | 0.00 | 0.00 | 0.00 | 67 | 1016.1 |
| 20260504214552 | 44 | 242 | 4.0 | 8.0 | 0.00 | 0.00 | 0.00 | 65 | 1016.1 |
| 20260504213052 | 46 | 238 | 6.0 | 10.0 | 0.00 | 0.00 | 0.00 | 62 | 1016.1 |
| 20260504211555 | 44 | 236 | 8.0 | 10.0 | 0.00 | 0.00 | 0.00 | 65 | 1016.2 |
| 20260504210059 | 45 | 242 | 6.0 | 9.0 | 0.00 | 0.00 | 0.00 | 64 | 1016.2 |
| 20260504204549 | 46 | 242 | 5.0 | 8.0 | 0.00 | 0.00 | 0.00 | 60 | 1016.3 |
| 20260504203055 | 48 | 238 | 5.0 | 8.0 | 0.00 | 0.00 | 0.00 | 58 | 1016.3 |
| 20260504201547 | 48 | 247 | 7.0 | 10.0 | 0.00 | 0.00 | 0.00 | 57 | 1016.2 |
| 20260504200055 | 49 | 254 | 7.0 | 10.0 | 0.00 | 0.00 | 0.00 | 55 | 1016.2 |
| 20260504194549 | 51 | 246 | 8.0 | 12.0 | 0.00 | 0.00 | 0.00 | 52 | 1016.1 |
| 20260504193051 | 53 | 245 | 10.0 | 12.0 | 0.00 | 0.00 | 0.00 | 49 | 1016.2 |
| 20260504191557 | 54 | 248 | 10.0 | 12.0 | 0.00 | 0.00 | 0.00 | 47 | 1016.1 |
| 20260504190059 | 56 | 248 | 9.0 | 14.0 | 0.00 | 0.00 | 0.00 | 43 | 1016.0 |
| 20260504184609 | 61 | 239 | 11.0 | 18.0 | 0.00 | 0.00 | 0.00 | 37 | 1016.0 |
| 20260504183053 | 61 | 234 | 13.0 | 20.0 | 0.00 | 0.00 | 0.00 | 37 | 1015.8 |
| 20260504181549 | 59 | 232 | 10.0 | 13.0 | 0.00 | 0.00 | 0.00 | 40 | 1015.7 |
| 20260504180049 | 56 | 240 | 8.0 | 12.0 | 0.00 | 0.00 | 0.00 | 44 | 1015.6 |
| 20260504174547 | 59 | 232 | 6.0 | 10.0 | 0.00 | 0.00 | 0.00 | 42 | 1015.5 |
| 20260504173042 | 61 | 224 | 5.0 | 9.0 | 0.00 | 0.00 | 0.00 | 37 | 1015.5 |
| 20260504171549 | 65 | 234 | 6.0 | 8.0 | 0.00 | 0.00 | 0.00 | 34 | 1015.2 |
| 20260504081552 | 69 | 219 | 13.0 | 20.0 | 0.00 | 0.00 | 0.00 | 28 | 1017.9 |